SCP
0 0 0 0 0 0 0 0 0 0 0 0 0 0 0 0 0 0 0 0 0 0 0 0 0 0 0 0 0 0 0 0 0 0 0 0 0 0 0 0 0 0 0
0 0 0 1 1 0 0 0 0 0 0 0 0 0 0 0 0 0 0 0 0 0 0 0 0 0 0 0 0 0 0 0 0 0 0 0 0 0 0 0 0 0 0
0 0 0 0 1 1 0 0 0 0 0 0 0 0 0 0 0 0 0 0 0 0 0 0 0 0 0 0 0 0 0 0 0 0 0 0 0 0 0 0 0 0 0
0 0 0 0 0 0 0 0 0 0 0 0 0 0 0 0 0 0 0 0 0 0 0 0 0 0 0 0 0 0 0 0 0 0 0 0 0 0 0 0 0 0 0
0 0 0 0 0 0 0 0 0 0 0 0 0 0 0 0 0 0 0 0 0 0 0 0 0 0 0 0 0 0 0 0 0 0 0 0 0 0 0 0 0 0 0
0 0 0 0 0 0 0 0 0 0 0 0 0 0 0 0 0 0 0 0 0 0 0 0 0 0 0 0 0 0 0 0 0 0 0 0 0 0 0 0 0 0 0
0 0 0 0 0 0 0 0 0 0 0 0 0 0 0 0 0 0 0 0 0 0 0 0 0 0 0 0 0 0 0 0 0 0 0 0 0 0 0 0 0 0 0
0 0 0 0 0 0 0 0 0 0 0 0 0 0 0 0 0 0 0 0 0 0 0 0 0 0 0 0 0 0 0 0 0 0 0 0 0 0 0 0 0 0 0
0 0 0 0 0 0 0 0 0 0 0 0 0 0 0 0 0 0 0 0 0 0 0 0 0 0 0 0 0 0 0 0 0 0 0 0 0 0 0 0 0 0 0
0 0 0 0 0 0 0 0 0 0 0 0 0 0 0 0 0 0 0 0 0 0 0 0 0 0 0 0 0 0 0 0 0 0 0 0 0 0 0 0 0 0 0
0 0 0 0 0 0 0 0 0 0 0 0 0 0 0 0 0 0 0 0 0 0 0 0 0 0 0 0 0 0 0 0 0 0 0 0 0 0 0 0 0 0 0
0 0 0 0 0 0 0 0 0 0 0 0 0 0 0 0 0 0 0 0 0 0 0 0 0 0 0 0 0 0 0 0 0 0 0 0 0 0 0 0 0 0 0
0 0 0 0 0 0 0 0 0 0 0 0 0 0 0 0 0 0 0 0 0 0 0 0 0 0 0 0 0 0 0 0 0 0 0 0 0 0 0 0 0 0 0
0 0 0 0 0 0 0 0 0 0 0 0 0 0 0 0 0 0 0 0 0 0 0 0 0 0 0 0 0 0 0 0 0 0 0 0 0 0 0 0 0 0 0
0 0 0 0 0 0 0 0 0 0 0 0 0 0 0 0 0 0 0 0 0 0 0 0 0 0 0 0 0 0 0 0 0 0 0 0 0 0 0 0 0 0 0
0 0 0 0 0 0 0 0 0 0 0 0 0 0 0 0 0 0 0 0 0 0 0 0 0 0 0 0 0 0 0 0 0 0 0 0 0 0 0 0 0 0 0
0 0 0 0 0 0 0 0 0 0 0 0 0 0 0 0 0 0 0 0 0 0 0 0 0 0 0 0 0 0 0 0 0 0 0 0 0 0 0 0 0 0 0
0 0 0 0 0 0 0 0 0 0 0 0 0 0 0 0 0 0 0 0 0 0 0 0 0 0 0 0 0 0 0 0 0 0 0 0 0 0 0 0 0 0 0
0 0 0 0 0 0 0 0 0 0 0 0 0 0 0 0 0 0 0 0 0 0 0 0 0 0 0 0 0 0 0 0 0 0 0 0 0 0 0 0 0 0 0
0 0 0 0 0 0 0 0 0 0 0 0 0 0 0 0 0 0 0 0 0 0 0 0 0 0 0 0 0 0 0 0 0 0 0 0 0 0 0 0 0 0 0
0 0 0 0 0 0 0 0 0 0 0 0 0 0 0 0 0 0 0 0 0 0 0 0 0 0 0 0 0 0 0 0 0 0 0 0 0 0 0 0 0 0 0
0 0 0 0 0 0 0 0 0 0 0 0 0 0 0 0 0 0 0 0 0 0 0 0 0 0 0 0 0 0 0 0 0 0 0 0 0 0 0 0 0 0 0
0 0 0 0 0 0 0 0 0 0 0 0 0 0 0 0 0 0 0 0 0 0 0 0 0 0 0 0 0 0 0 0 0 0 0 0 0 0 0 0 0 0 0
0 0 0 0 0 0 0 0 0 0 0 0 0 0 0 0 0 0 0 0 0 0 0 0 0 0 0 0 0 0 0 0 0 0 0 0 0 0 0 0 0 0 0
0 0 0 0 0 0 0 0 0 0 0 0 0 0 0 0 0 0 0 0 0 0 0 0 0 0 0 0 0 0 0 0 0 0 0 0 0 0 0 0 0 0 0
0 0 0 0 0 0 0 0 0 0 0 0 0 0 0 0 0 0 0 0 0 0 0 0 0 0 0 0 0 0 0 0 0 0 0 0 0 0 0 0 0 0 0
Wind_Speed
4 5 10 10 10 10 9 10 10 10 10 10 10 10 10 10 9 9 9 9 9 9 10 10 10 10 10 10 10 10 10 9 9 9 10 11 11 12 12 12 11 8 12
7 7 11 11 11 10 10 10 10 10 10 10 10 10 10 9 9 9 9 8 8 9 9 9 9 9 10 10 9 9 9 9 8 9 9 9 10 11 11 11 10 8 13
9 7 9 11 11 11 10 10 10 10 10 10 10 10 9 9 9 9 8 8 8 8 8 9 9 9 9 9 9 9 9 8 8 9 8 5 7 10 11 11 10 11 12
9 7 8 11 11 11 10 10 9 10 10 10 9 10 9 9 9 8 8 8 8 8 8 8 8 8 8 8 9 9 9 9 9 8 4 4 5 10 11 11 11 11 13
7 6 8 12 11 11 11 10 9 9 9 9 9 9 9 8 8 8 8 8 8 7 7 8 8 8 8 8 8 8 8 8 8 6 4 3 3 8 11 11 12 12 13
6 5 7 12 11 10 10 10 9 9 9 9 8 8 8 8 7 7 7 7 7 7 7 7 7 7 8 7 8 7 8 7 7 5 4 3 3 8 10 12 12 12 13
6 5 6 11 11 11 10 10 9 8 8 8 7 7 7 7 7 7 7 7 6 6 6 6 6 6 6 6 7 7 7 7 5 4 4 3 4 8 10 11 12 13 13
6 5 5 10 10 10 10 10 9 8 7 7 6 6 6 6 6 6 6 5 5 5 5 5 5 5 5 5 6 6 6 6 5 5 4 3 5 8 10 11 12 12 13
5 4 4 5 6 8 9 9 8 8 7 6 6 6 6 6 6 6 5 5 4 4 5 5 5 4 4 4 5 6 6 7 5 3 4 2 6 9 10 10 11 11 12
4 4 3 3 3 3 4 7 8 7 7 7 6 6 5 5 4 5 4 4 4 5 5 4 4 4 4 4 4 5 6 5 4 3 2 3 7 9 10 10 10 10 10
4 3 3 3 3 3 3 5 5 6 6 5 4 5 4 2 2 2 2 3 4 4 4 4 3 3 3 3 4 5 5 2 3 2 2 5 8 9 9 9 9 9 10
6 5 3 3 3 3 3 3 2 2 2 2 2 2 2 2 2 2 2 3 3 3 2 2 2 2 2 1 2 3 2 3 2 2 2 6 7 8 8 9 8 8 9
6 5 4 4 4 3 2 2 1 1 2 2 2 2 2 2 1 2 1 1 1 2 1 2 2 2 1 1 1 2 2 2 1 1 2 5 7 8 9 9 8 8 8
5 5 4 4 4 3 2 2 2 1 2 1 2 2 2 1 1 1 1 1 1 1 1 2 1 1 2 2 2 2 2 1 1 1 2 5 5 6 8 9 9 8 8
6 6 5 5 4 3 2 2 2 2 2 2 2 2 2 2 1 1 1 1 1 1 1 1 1 1 1 1 1 2 2 2 2 2 1 4 4 5 6 8 9 9 8
7 6 5 5 4 4 3 2 2 2 2 2 1 2 2 2 2 1 1 1 1 1 1 1 1 1 1 1 1 1 1 2 2 2 1 2 4 5 6 7 8 9 9
6 5 5 5 4 4 3 3 2 2 2 2 1 2 2 2 2 2 1 1 1 1 1 1 1 1 1 1 1 0 1 1 2 2 2 2 2 4 5 5 7 8 9
5 5 5 5 5 4 3 3 2 2 2 1 1 1 2 2 2 2 2 1 1 1 1 1 1 1 0 0 0 0 0 0 1 2 2 2 2 2 3 4 5 7 8
6 5 5 4 5 4 3 2 2 2 2 1 1 1 1 2 2 2 2 2 2 2 1 1 1 1 0 0 0 0 0 0 1 1 2 2 2 2 1 3 5 6 7
6 5 5 4 4 4 3 2 1 1 1 1 1 1 1 1 2 2 2 1 2 2 1 1 1 1 1 0 0 1 1 0 0 0 1 1 1 2 2 2 2 3 4
6 6 5 5 4 4 3 2 2 1 0 0 0 1 1 1 1 2 1 2 2 2 2 2 2 2 1 1 1 1 2 2 1 1 0 0 1 1 1 2 1 1 2
6 6 6 5 4 4 3 2 2 1 1 1 0 1 1 1 1 2 2 1 2 2 2 2 2 2 1 1 2 2 1 2 2 1 0 1 1 1 1 2 2 2 1
6 7 6 5 5 4 3 3 2 2 2 1 1 0 1 0 1 1 1 1 2 2 2 2 2 3 2 1 1 3 2 2 1 1 1 0 0 0 1 1 2 2 2
6 6 5 5 5 4 4 4 4 3 2 1 1 1 1 0 0 1 1 1 2 2 2 2 2 2 3 2 1 1 1 2 2 0 1 1 1 1 1 1 1 1 1
5 5 5 5 4 4 4 4 4 2 1 1 1 1 0 1 0 0 1 1 1 1 2 2 2 2 2 2 2 1 1 1 1 2 1 1 1 1 1 1 1 1 1
4 4 5 5 4 4 4 4 4 3 2 2 1 1 1 0 0 0 1 1 1 1 2 2 2 2 2 2 2 2 2 2 2 2 2 1 1 1 1 1 1 1 1
Wind_Direction
166 161 158 151 143 133 125 118 113 111 112 112 112 111 110 108 110 110 109 110 111 111 112 112 113 116 118 120 121 120 117 117 121 126 135 139 141 143 143 140 140 139 140
151 155 159 153 146 138 129 121 116 113 113 115 114 114 112 110 109 111 109 111 113 112 112 113 114 117 120 121 121 120 118 117 125 130 132 143 145 145 142 139 140 141 144
141 151 158 154 148 140 132 125 120 118 117 115 113 114 111 109 108 109 109 111 111 112 113 115 117 120 122 122 120 118 118 119 121 121 122 124 136 139 139 140 141 142 146
142 148 156 154 149 143 136 131 127 123 120 117 116 115 112 110 107 108 110 112 112 111 111 114 119 122 123 124 122 121 119 120 121 122 114 119 134 143 141 140 140 139 144
136 145 159 154 151 145 139 136 132 126 122 120 118 117 115 112 110 108 111 114 113 111 110 113 118 119 120 122 122 122 122 124 123 118 112 122 132 149 149 146 144 141 142
136 143 158 151 149 145 143 141 134 129 125 122 120 119 118 115 114 114 116 119 117 114 113 113 117 120 120 121 125 126 126 126 120 112 114 128 138 152 153 153 150 145 142
141 144 156 154 154 154 152 146 139 135 129 125 123 122 120 119 119 118 118 119 118 115 118 115 113 117 119 124 131 132 128 125 119 114 120 129 146 151 151 152 152 148 146
141 143 152 159 156 156 156 151 146 140 134 131 127 123 124 124 127 129 126 122 120 121 122 121 113 111 113 122 131 127 126 128 123 125 128 138 150 151 148 146 147 150 151
135 138 146 154 157 159 160 157 151 147 142 138 133 127 125 124 127 132 131 129 129 134 130 124 117 116 107 108 119 123 124 127 118 125 140 142 145 146 146 145 147 150 153
128 138 138 139 143 151 158 162 158 154 150 147 140 135 128 124 125 130 125 129 127 133 128 122 118 111 103 111 117 119 120 120 117 127 131 151 151 149 148 149 152 155 158
153 151 145 146 141 139 151 164 157 153 149 142 137 134 120 89 85 103 121 127 122 122 123 119 118 114 111 116 121 122 114 108 118 126 141 154 157 158 158 157 160 164 165
178 177 163 157 151 146 158 138 124 128 124 111 99 102 94 82 74 85 72 109 109 110 111 95 92 93 98 81 108 114 106 117 122 133 154 163 166 166 164 162 165 170 171
178 179 179 172 162 156 151 138 125 114 111 109 113 111 105 93 76 68 52 45 52 71 65 54 60 71 94 104 101 103 112 123 142 151 161 170 178 180 174 171 170 171 171
170 183 178 174 168 162 148 146 141 138 138 141 144 134 129 117 93 85 78 67 65 60 71 66 70 84 94 118 134 139 141 152 163 157 178 183 188 194 189 179 176 175 173
178 184 180 176 172 163 151 155 154 159 157 153 149 154 152 150 145 133 128 106 93 81 82 83 82 90 93 108 133 148 161 171 176 181 193 201 209 208 196 192 184 183 182
184 184 175 174 171 160 163 165 163 165 158 144 158 171 161 157 154 153 143 129 119 114 116 131 132 117 107 116 116 138 179 184 182 185 197 217 220 216 205 202 195 187 189
178 173 170 170 161 161 162 160 151 156 151 159 173 171 167 161 158 158 152 150 156 127 121 109 99 95 106 119 136 141 172 199 191 192 197 206 221 218 210 205 204 194 195
156 158 166 165 156 160 161 154 140 136 137 148 157 159 171 170 167 161 163 185 174 140 128 129 114 102 62 59 116 248 173 195 199 194 197 201 208 213 218 216 211 207 207
159 153 151 149 155 160 155 138 130 125 126 126 122 131 167 179 176 172 177 193 166 142 150 175 129 132 130 6 221 152 141 206 217 197 193 203 203 200 208 223 217 212 215
152 145 145 147 151 144 130 110 100 94 94 103 122 138 147 175 174 160 164 176 156 143 150 157 140 121 125 159 91 46 29 39 120 167 207 204 204 206 205 220 208 208 211
147 149 153 153 154 145 139 144 143 159 158 135 166 159 155 158 146 147 148 153 156 160 170 166 149 131 91 100 93 39 18 35 53 52 163 192 217 218 203 212 207 203 207
162 163 164 166 163 160 159 155 143 141 152 149 67 62 92 125 131 148 147 162 166 161 158 162 153 143 145 141 137 113 37 6 359 353 310 191 236 243 228 228 217 213 214
168 174 173 174 164 160 143 123 104 77 68 59 37 11 336 87 126 122 152 156 159 165 178 179 167 160 166 158 142 141 146 205 301 337 314 263 247 267 268 245 224 221 216
180 170 164 161 154 151 142 145 148 150 161 195 198 217 302 3 85 124 147 155 162 166 173 181 165 168 160 169 149 129 149 154 158 276 332 335 324 267 270 262 236 221 218
164 156 155 147 145 147 148 153 152 144 170 158 146 146 352 349 24 87 152 138 151 176 179 166 152 155 158 166 167 157 145 123 148 169 235 306 339 302 270 259 230 218 210
145 146 146 145 149 149 149 147 153 154 155 147 160 174 212 276 288 218 169 158 173 181 183 181 166 156 154 159 171 172 170 171 181 178 201 227 258 285 295 278 252 233 211